Location: Knobs
(40.8333°S, 175.2333°E)
Time: 01:53:41
(UTC+00:00)

Radarsat - Pass Details

Date: 12 June 2024
Orbit: 785 x 787 km, 98.6° (Epoch: 22 July)

Event Time Altitude Azimuth Distance (km) Brightness Sun altitude
Rises 17:49:16 0° 15° (NNE) 3,269 8.1 -20.4°
Reaches altitude 10° 17:51:34 10° 14° (NNE) 2,349 7.4 -19.9°
Maximum altitude 17:56:47 88° 283° (WNW) 802 4.5 -19.0°
Drops below altitude 10° 18:02:03 10° 194° (SSW) 2,380 6.8 -18.0°
Enters shadow 18:02:52 - 193° (SSW) 2,700 7.0 -17.9°
